HB9ZRH-10 Weather Reports


Display with metric or nautical units.
time (UTC)temp
F
wind
direction
speed
MPH
gust
MPH
rain 1hr
in
rain 24hr
in
rain mn
in
humidity
%
barometer
mb
20260506023356 62 0.0 0.0 0.00 0.00 0.00 48 1007.8
20260506022856 64 0.0 0.0 0.00 0.00 0.00 48 1007.8
20260506022356 60 0.0 0.0 0.00 0.00 0.00 49 1007.9
20260506021856 58 0.0 0.0 0.00 0.00 0.00 50 1008.0
20260506021356 57 0.0 0.0 0.00 0.00 0.00 49 1008.0
20260506021049 56 0.0 0.0 0.00 0.00 0.00 49 1008.2
20260506015856 56 0.0 0.0 0.00 0.00 0.00 49 1008.2
20260506015356 58 0.0 0.0 0.00 0.00 0.00 47 1008.2
20260506014856 60 0.0 0.0 0.00 0.00 0.00 47 1008.2
20260506014356 63 0.0 0.0 0.00 0.00 0.00 45 1008.2
20260506013856 65 0.0 0.0 0.00 0.00 0.00 44 1008.2
20260506013356 63 0.0 0.0 0.00 0.00 0.00 45 1008.3
20260506012856 62 0.0 0.0 0.00 0.00 0.00 45 1008.3
20260506012356 66 0.0 0.0 0.00 0.00 0.00 43 1008.3
20260506011856 70 0.0 0.0 0.00 0.00 0.00 41 1008.3
20260506011356 75 0.0 0.0 0.00 0.00 0.00 39 1008.2
20260506010856 76 0.0 0.0 0.00 0.00 0.00 39 1008.2
20260506010356 77 0.0 0.0 0.00 0.00 0.00 38 1008.2
20260506005856 77 0.0 0.0 0.00 0.00 0.00 39 1008.2
20260506005356 77 0.0 0.0 0.00 0.00 0.00 39 1008.3
20260506004856 77 0.0 0.0 0.00 0.00 0.00 39 1008.4
20260506004356 77 0.0 0.0 0.00 0.00 0.00 39 1008.4
20260506003856 77 0.0 0.0 0.00 0.00 0.00 39 1008.4
20260506003356 76 0.0 0.0 0.00 0.00 0.00 39 1008.5
20260506002856 76 0.0 0.0 0.00 0.00 0.00 39 1008.6
20260506002356 76 0.0 0.0 0.00 0.00 0.00 39 1008.6
20260506001856 76 0.0 0.0 0.00 0.00 0.00 39 1008.7
20260506001356 76 0.0 0.0 0.00 0.00 0.00 39 1008.8
20260506000856 75 0.0 0.0 0.00 0.00 0.00 39 1008.9
20260506000356 75 0.0 0.0 0.00 0.00 0.00 39 1009.0
20260505235856 77 0.0 0.0 0.00 0.00 0.00 38 1008.9
20260505235356 77 0.0 0.0 0.00 0.00 0.00 38 1008.9
20260505234856 77 0.0 0.0 0.00 0.00 0.00 39 1008.9
20260505234356 77 0.0 0.0 0.00 0.00 0.00 39 1008.9
20260505233856 77 0.0 0.0 0.00 0.00 0.00 39 1008.9
20260505233356 77 0.0 0.0 0.00 0.00 0.00 39 1008.9
20260505232856 75 0.0 0.0 0.00 0.00 0.00 40 1009.0
20260505232356 72 0.0 0.0 0.00 0.00 0.00 40 1009.1
20260505231856 73 0.0 0.0 0.00 0.00 0.00 40 1009.2
20260505231356 76 0.0 0.0 0.00 0.00 0.00 39 1009.1
20260505230856 76 0.0 0.0 0.00 0.00 0.00 39 1009.2
20260505230356 76 0.0 0.0 0.00 0.00 0.00 39 1009.1
20260505225856 76 0.0 0.0 0.00 0.00 0.00 39 1009.2
20260505225356 76 0.0 0.0 0.00 0.00 0.00 39 1009.1
20260505224519 75 0.0 0.0 0.00 0.00 0.00 39 1009.2
20260505224019 75 0.0 0.0 0.00 0.00 0.00 40 1009.1
20260505223519 75 0.0 0.0 0.00 0.00 0.00 40 1009.2
20260505223019 74 0.0 0.0 0.00 0.00 0.00 40 1009.2
20260505222519 74 0.0 0.0 0.00 0.00 0.00 40 1009.1
20260505222019 75 0.0 0.0 0.00 0.00 0.00 40 1009.2
20260505221519 77 0.0 0.0 0.00 0.00 0.00 39 1009.3
20260505221019 78 0.0 0.0 0.00 0.00 0.00 39 1009.1
20260505220519 77 0.0 0.0 0.00 0.00 0.00 39 1009.2
20260505220019 76 0.0 0.0 0.00 0.00 0.00 39 1009.2
20260505215519 77 0.0 0.0 0.00 0.00 0.00 39 1009.4
20260505215019 77 0.0 0.0 0.00 0.00 0.00 40 1009.4
20260505214519 76 0.0 0.0 0.00 0.00 0.00 40 1009.6
20260505214019 76 0.0 0.0 0.00 0.00 0.00 40 1009.7
20260505213519 76 0.0 0.0 0.00 0.00 0.00 40 1009.8
20260505213019 76 0.0 0.0 0.00 0.00 0.00 40 1009.7
20260505212519 76 0.0 0.0 0.00 0.00 0.00 40 1009.8
20260505212019 76 0.0 0.0 0.00 0.00 0.00 40 1009.8
20260505211519 76 0.0 0.0 0.00 0.00 0.00 40 1009.9
20260505211019 77 0.0 0.0 0.00 0.00 0.00 40 1009.9
20260505210519 76 0.0 0.0 0.00 0.00 0.00 40 1009.9
20260505210019 76 0.0 0.0 0.00 0.00 0.00 40 1009.8
20260505205519 76 0.0 0.0 0.00 0.00 0.00 40 1009.9
20260505205019 77 0.0 0.0 0.00 0.00 0.00 39 1009.8
20260505204519 77 0.0 0.0 0.00 0.00 0.00 40 1009.8
20260505204019 77 0.0 0.0 0.00 0.00 0.00 40 1009.9
20260505203519 77 0.0 0.0 0.00 0.00 0.00 40 1009.8
20260505203019 76 0.0 0.0 0.00 0.00 0.00 40 1009.8
20260505202519 77 0.0 0.0 0.00 0.00 0.00 40 1009.8
20260505202019 77 0.0 0.0 0.00 0.00 0.00 40 1009.8
20260505201519 77 0.0 0.0 0.00 0.00 0.00 40 1009.8
20260505201019 78 0.0 0.0 0.00 0.00 0.00 40 1009.8
20260505200519 77 0.0 0.0 0.00 0.00 0.00 40 1009.7
20260505200019 76 0.0 0.0 0.00 0.00 0.00 40 1009.6
20260505195519 75 0.0 0.0 0.00 0.00 0.00 41 1009.5
20260505195019 72 0.0 0.0 0.00 0.00 0.00 41 1009.3
20260505194519 78 0.0 0.0 0.00 0.00 0.00 40 1009.3
20260505194019 77 0.0 0.0 0.00 0.00 0.00 40 1009.2
20260505193519 77 0.0 0.0 0.00 0.00 0.00 41 1009.2
20260505193019 76 0.0 0.0 0.00 0.00 0.00 41 1009.2
20260505192519 76 0.0 0.0 0.00 0.00 0.00 41 1009.2
20260505192019 75 0.0 0.0 0.00 0.00 0.00 42 1009.2
20260505191519 75 0.0 0.0 0.00 0.00 0.00 42 1009.2
20260505191019 75 0.0 0.0 0.00 0.00 0.00 42 1009.1
20260505190519 75 0.0 0.0 0.00 0.00 0.00 41 1009.1
20260505190019 75 0.0 0.0 0.00 0.00 0.00 41 1009.0
20260505185519 76 0.0 0.0 0.00 0.00 0.00 41 1009.0
20260505185019 76 0.0 0.0 0.00 0.00 0.00 41 1008.9
20260505184519 75 0.0 0.0 0.00 0.00 0.00 41 1008.9
20260505184019 76 0.0 0.0 0.00 0.00 0.00 41 1008.8
20260505183519 77 0.0 0.0 0.00 0.00 0.00 41 1008.9
20260505183019 78 0.0 0.0 0.00 0.00 0.00 41 1008.9
20260505182519 78 0.0 0.0 0.00 0.00 0.00 40 1009.0
20260505182019 79 0.0 0.0 0.00 0.00 0.00 40 1009.0
20260505181519 78 0.0 0.0 0.00 0.00 0.00 41 1009.0
20260505181019 79 0.0 0.0 0.00 0.00 0.00 41 1009.1
20260505180519 78 0.0 0.0 0.00 0.00 0.00 41 1009.0
20260505180019 78 0.0 0.0 0.00 0.00 0.00 41 1008.9
20260505175519 78 0.0 0.0 0.00 0.00 0.00 41 1009.0
20260505175019 78 0.0 0.0 0.00 0.00 0.00 41 1009.2
20260505174519 77 0.0 0.0 0.00 0.00 0.00 42 1009.1
20260505174019 77 0.0 0.0 0.00 0.00 0.00 42 1009.1
20260505173519 77 0.0 0.0 0.00 0.00 0.00 42 1009.1
20260505173019 77 0.0 0.0 0.00 0.00 0.00 42 1009.1
20260505172519 77 0.0 0.0 0.00 0.00 0.00 42 1009.0
20260505172019 76 0.0 0.0 0.00 0.00 0.00 43 1009.0
20260505171519 71 0.0 0.0 0.00 0.00 0.00 46 1009.1
20260505171019 69 0.0 0.0 0.00 0.00 0.00 47 1009.0
20260505170519 70 0.0 0.0 0.00 0.00 0.00 47 1009.1
20260505170019 64 0.0 0.0 0.00 0.00 0.00 49 1009.2
20260505165519 65 0.0 0.0 0.00 0.00 0.00 48 1009.0
20260505165019 74 0.0 0.0 0.00 0.00 0.00 43 1008.9
20260505164519 75 0.0 0.0 0.00 0.00 0.00 44 1008.7
20260505164019 70 0.0 0.0 0.00 0.00 0.00 47 1008.9
20260505163519 69 0.0 0.0 0.00 0.00 0.00 47 1009.0
20260505163019 71 0.0 0.0 0.00 0.00 0.00 45 1008.9
20260505162519 72 0.0 0.0 0.00 0.00 0.00 47 1009.0
20260505162019 66 0.0 0.0 0.00 0.00 0.00 49 1009.1
20260505161519 62 0.0 0.0 0.00 0.00 0.00 51 1009.0
20260505161019 61 0.0 0.0 0.00 0.00 0.00 50 1008.9
20260505160519 61 0.0 0.0 0.00 0.00 0.00 51 1008.9
20260505153019 68 0.0 0.0 0.00 0.00 0.00 47 1008.5
20260505152519 70 0.0 0.0 0.00 0.00 0.00 45 1008.5
20260505152019 68 0.0 0.0 0.00 0.00 0.00 47 1008.5
20260505151519 69 0.0 0.0 0.00 0.00 0.00 45 1008.4
20260505151019 67 0.0 0.0 0.00 0.00 0.00 46 1008.4
20260505150519 66 0.0 0.0 0.00 0.00 0.00 47 1008.4
20260505140519 76 0.0 0.0 0.00 0.00 0.00 42 1008.3
20260505125019 74 0.0 0.0 0.00 0.00 0.00 42 1008.6
20260505124519 75 0.0 0.0 0.00 0.00 0.00 42 1008.6
20260505124019 74 0.0 0.0 0.00 0.00 0.00 42 1008.6
20260505123519 74 0.0 0.0 0.00 0.00 0.00 42 1008.6
20260505123019 74 0.0 0.0 0.00 0.00 0.00 42 1008.6
20260505122519 73 0.0 0.0 0.00 0.00 0.00 42 1008.7
20260505122019 74 0.0 0.0 0.00 0.00 0.00 42 1008.7
20260505121519 73 0.0 0.0 0.00 0.00 0.00 42 1008.8
20260505121019 72 0.0 0.0 0.00 0.00 0.00 43 1008.8
20260505120519 73 0.0 0.0 0.00 0.00 0.00 43 1008.8
20260505120019 73 0.0 0.0 0.00 0.00 0.00 42 1008.8
20260505115519 73 0.0 0.0 0.00 0.00 0.00 42 1008.9
20260505115019 73 0.0 0.0 0.00 0.00 0.00 42 1008.8
20260505114519 74 0.0 0.0 0.00 0.00 0.00 42 1008.8
20260505114019 73 0.0 0.0 0.00 0.00 0.00 43 1008.8
20260505113519 72 0.0 0.0 0.00 0.00 0.00 43 1008.8
20260505113019 72 0.0 0.0 0.00 0.00 0.00 43 1008.8
20260505112519 70 0.0 0.0 0.00 0.00 0.00 44 1008.8
20260505112019 70 0.0 0.0 0.00 0.00 0.00 44 1008.8
20260505111519 70 0.0 0.0 0.00 0.00 0.00 44 1008.8
20260505111019 68 0.0 0.0 0.00 0.00 0.00 44 1008.9
20260505110519 70 0.0 0.0 0.00 0.00 0.00 44 1008.8
20260505102019 69 0.0 0.0 0.00 0.00 0.00 44 1009.0
20260505101519 68 0.0 0.0 0.00 0.00 0.00 43 1009.0
20260505101019 70 0.0 0.0 0.00 0.00 0.00 43 1008.9
20260505100519 74 0.0 0.0 0.00 0.00 0.00 42 1009.0
20260505100019 74 0.0 0.0 0.00 0.00 0.00 42 1008.9
20260505095519 74 0.0 0.0 0.00 0.00 0.00 41 1008.9
20260505095019 72 0.0 0.0 0.00 0.00 0.00 42 1009.0
20260505094519 71 0.0 0.0 0.00 0.00 0.00 43 1008.9
20260505094019 72 0.0 0.0 0.00 0.00 0.00 42 1009.0
20260505093519 72 0.0 0.0 0.00 0.00 0.00 43 1009.0
20260505093019 70 0.0 0.0 0.00 0.00 0.00 43 1008.9
20260505092519 70 0.0 0.0 0.00 0.00 0.00 44 1009.1
20260505092019 69 0.0 0.0 0.00 0.00 0.00 44 1009.0
20260505091519 70 0.0 0.0 0.00 0.00 0.00 43 1008.9
20260505091019 71 0.0 0.0 0.00 0.00 0.00 44 1009.1
20260505090519 67 0.0 0.0 0.00 0.00 0.00 45 1009.1
20260505090019 71 0.0 0.0 0.00 0.00 0.00 43 1008.9
20260505085519 71 0.0 0.0 0.00 0.00 0.00 43 1009.0
20260505085019 70 0.0 0.0 0.00 0.00 0.00 43 1009.1
20260505084519 71 0.0 0.0 0.00 0.00 0.00 44 1009.2
20260505084019 63 0.0 0.0 0.00 0.00 0.00 47 1009.2
20260505083519 66 0.0 0.0 0.00 0.00 0.00 47 1009.3
20260505083019 62 0.0 0.0 0.00 0.00 0.00 47 1009.4
20260505082519 63 0.0 0.0 0.00 0.00 0.00 47 1009.4
20260505082019 61 0.0 0.0 0.00 0.00 0.00 48 1009.5
20260505081519 59 0.0 0.0 0.00 0.00 0.00 48 1009.5
20260505081019 58 0.0 0.0 0.00 0.00 0.00 48 1009.5
20260505080519 56 0.0 0.0 0.00 0.00 0.00 48 1009.5
20260505080019 57 0.0 0.0 0.00 0.00 0.00 48 1009.6
20260505075519 57 0.0 0.0 0.00 0.00 0.00 47 1009.6
20260505075019 60 0.0 0.0 0.00 0.00 0.00 46 1009.6
20260505074519 63 0.0 0.0 0.00 0.00 0.00 44 1009.6
20260505074019 63 0.0 0.0 0.00 0.00 0.00 44 1009.7
20260505073519 66 0.0 0.0 0.00 0.00 0.00 43 1009.7
20260505073019 72 0.0 0.0 0.00 0.00 0.00 40 1009.7
20260505072519 75 0.0 0.0 0.00 0.00 0.00 39 1009.8
20260505072019 77 0.0 0.0 0.00 0.00 0.00 39 1009.7
20260505071519 77 0.0 0.0 0.00 0.00 0.00 39 1009.7
20260505071019 75 0.0 0.0 0.00 0.00 0.00 39 1009.8
20260505070519 75 0.0 0.0 0.00 0.00 0.00 39 1009.9
20260505070019 77 0.0 0.0 0.00 0.00 0.00 39 1009.9
20260505065519 78 0.0 0.0 0.00 0.00 0.00 38 1009.8
20260505065019 79 0.0 0.0 0.00 0.00 0.00 38 1009.8
20260505064519 79 0.0 0.0 0.00 0.00 0.00 39 1009.8
20260505064019 78 0.0 0.0 0.00 0.00 0.00 39 1009.9
20260505063519 77 0.0 0.0 0.00 0.00 0.00 40 1009.9
20260505063019 76 0.0 0.0 0.00 0.00 0.00 40 1009.9
20260505062519 73 0.0 0.0 0.00 0.00 0.00 41 1009.9
20260505062019 72 0.0 0.0 0.00 0.00 0.00 42 1009.9
20260505061519 70 0.0 0.0 0.00 0.00 0.00 43 1009.9
20260505061019 65 0.0 0.0 0.00 0.00 0.00 45 1010.0
20260505060519 67 0.0 0.0 0.00 0.00 0.00 43 1009.9
20260505060019 71 0.0 0.0 0.00 0.00 0.00 42 1009.9
20260505055519 70 0.0 0.0 0.00 0.00 0.00 42 1009.9
20260505055019 68 0.0 0.0 0.00 0.00 0.00 44 1010.0
20260505054519 66 0.0 0.0 0.00 0.00 0.00 44 1010.0
20260505054019 67 0.0 0.0 0.00 0.00 0.00 44 1009.9
20260505053519 64 0.0 0.0 0.00 0.00 0.00 45 1010.0
20260505053019 64 0.0 0.0 0.00 0.00 0.00 44 1009.9
20260505052519 66 0.0 0.0 0.00 0.00 0.00 43 1009.8
20260505052019 71 0.0 0.0 0.00 0.00 0.00 41 1009.8
20260505051519 75 0.0 0.0 0.00 0.00 0.00 39 1009.7
20260505051019 76 0.0 0.0 0.00 0.00 0.00 39 1009.7
20260505050519 77 0.0 0.0 0.00 0.00 0.00 39 1009.6
20260505041519 68 0.0 0.0 0.00 0.00 0.00 43 1010.0
20260505041019 70 0.0 0.0 0.00 0.00 0.00 42 1009.9
20260505040519 72 0.0 0.0 0.00 0.00 0.00 42 1009.8
20260505040019 73 0.0 0.0 0.00 0.00 0.00 41 1009.8
20260505035519 73 0.0 0.0 0.00 0.00 0.00 41 1009.8
20260505035019 72 0.0 0.0 0.00 0.00 0.00 42 1009.8
20260505034519 72 0.0 0.0 0.00 0.00 0.00 42 1009.8
20260505034019 72 0.0 0.0 0.00 0.00 0.00 41 1009.9
20260505033519 72 0.0 0.0 0.00 0.00 0.00 42 1009.9
20260505033019 71 0.0 0.0 0.00 0.00 0.00 42 1009.9
20260505032519 74 0.0 0.0 0.00 0.00 0.00 40 1010.0
20260505032019 73 0.0 0.0 0.00 0.00 0.00 41 1010.0
20260505031519 74 0.0 0.0 0.00 0.00 0.00 41 1010.2
20260505031019 75 0.0 0.0 0.00 0.00 0.00 40 1010.2
20260505030519 76 0.0 0.0 0.00 0.00 0.00 40 1010.2
20260505030019 75 0.0 0.0 0.00 0.00 0.00 40 1010.3
20260505025519 75 0.0 0.0 0.00 0.00 0.00 40 1010.3
20260505025019 75 0.0 0.0 0.00 0.00 0.00 40 1010.3
20260505024519 75 0.0 0.0 0.00 0.00 0.00 40 1010.3
20260505024019 75 0.0 0.0 0.00 0.00 0.00 41 1010.4